Temp
11 10 11 11 11 11 10 10 9 9 8 8 9 8 6 6 5 5 5 6 5 5
10 11 11 10 10 10 9 9 9 8 8 8 8 7 6 5 5 6 6 5 5 5
11 11 11 10 10 9 8 8 8 7 7 7 7 7 6 6 6 5 5 4 5 5
11 11 10 10 9 8 8 7 7 7 7 6 7 7 6 6 5 5 4 4 5 4
11 11 10 10 9 8 7 7 7 6 6 7 7 6 6 5 4 4 4 5 4 3
11 11 10 9 9 8 7 7 6 6 6 6 5 4 5 5 5 4 4 3 3 3
11 11 10 9 8 8 7 6 6 6 6 6 5 5 4 3 3 3 3 2 2 2
11 10 9 9 8 7 6 6 6 6 6 5 4 3 3 3 3 3 2 2 2 1
10 10 9 8 7 7 7 6 6 5 5 5 4 1 1 0 1 2 1 1 1 0
10 9 8 8 7 7 7 6 5 5 4 4 3 1 0 -0 -0 1 1 0 -0 -0
9 8 8 7 7 7 6 6 5 5 4 3 2 1 -0 -1 -1 0 -0 -1 -1 -1
8 7 7 7 6 6 5 5 5 5 4 3 1 0 -1 -2 -1 -1 -1 -1 -2 -2
6 6 6 6 5 5 5 5 4 4 3 3 1 -0 -1 -2 -2 -2 -2 -2 -2 -3
6 6 5 5 4 4 4 4 3 2 2 1 0 -1 -2 -3 -4 -3 -3 -3 -3 -3
Height
849 851 851 853 852 851 851 849 847 846 844 842 839 838 838 839 838 837 835 835 835 834
847 848 851 851 851 850 849 847 845 843 841 838 837 836 835 835 833 832 830 832 830 830
844 846 847 848 848 847 846 845 843 840 838 835 833 832 831 830 828 828 826 828 826 826
841 843 845 845 844 844 843 842 839 837 835 833 831 828 827 826 825 823 822 823 822 823
838 840 841 841 841 840 840 838 836 834 832 828 826 825 824 824 822 820 819 818 820 820
835 836 837 837 837 837 836 835 833 830 828 826 824 823 821 820 819 819 819 819 818 818
830 832 833 833 833 832 832 831 829 827 825 823 822 821 819 819 819 819 817 818 817 816
827 828 829 829 829 828 827 826 824 822 821 819 818 820 819 817 816 816 816 815 815 813
824 824 824 825 824 823 822 821 819 817 814 813 814 816 817 816 816 815 814 813 812 811
822 822 820 820 819 818 817 817 817 815 814 813 811 813 815 814 814 813 812 811 810 808
819 819 818 817 816 815 814 813 811 810 809 810 809 810 813 813 811 811 810 810 808 806
817 817 817 814 812 812 810 809 808 806 807 807 807 808 810 810 810 809 808 807 806 804
813 812 812 810 810 808 807 805 805 806 804 804 806 805 807 808 808 807 806 805 803 800
812 810 810 809 806 805 803 802 802 804 804 804 805 804 805 805 805 805 804 802 800 799
Wind_Speed
7 4 2 2 6 7 10 11 14 15 17 17 15 14 10 14 17 14 14 15 14 16
7 5 1 2 5 7 9 12 14 15 16 16 14 16 15 17 18 17 14 17 14 14
8 5 2 3 6 9 10 12 14 15 16 17 17 17 19 19 21 21 15 19 14 15
7 6 5 6 7 9 12 13 15 16 16 16 17 17 19 22 21 21 18 16 14 15
9 8 8 8 9 11 13 14 16 17 17 17 17 16 18 21 19 16 15 12 14 16
11 10 10 10 11 12 13 15 17 17 17 16 16 16 18 16 14 12 12 14 13 16
11 11 12 12 13 14 14 16 17 17 18 17 17 14 11 11 12 12 12 10 13 17
12 12 13 14 14 15 14 16 17 17 17 17 14 10 7 10 10 10 11 14 17 18
12 12 14 14 15 16 15 16 16 16 15 14 9 6 10 6 7 12 14 17 17 16
12 13 14 15 16 16 16 16 16 14 11 11 3 6 6 5 8 12 14 15 14 15
11 14 14 15 16 16 16 16 14 13 11 10 5 8 8 7 8 12 12 12 13 13
10 12 15 16 16 16 16 15 14 13 10 10 8 11 8 7 9 11 11 12 12 11
10 12 15 15 15 16 14 14 13 12 10 9 5 9 11 8 8 10 11 11 11 10
12 13 14 14 15 13 13 12 11 10 10 10 8 10 11 10 7 9 10 11 11 10
Wind_Direction
111 112 111 348 345 336 323 322 322 317 312 307 297 289 262 266 279 282 271 275 274 281
147 121 182 348 330 324 324 321 317 312 308 302 298 288 272 274 278 284 288 272 272 281
163 179 216 288 316 327 322 314 311 311 309 305 296 276 283 283 285 291 295 273 269 286
187 206 244 285 309 314 310 309 310 309 307 304 299 294 291 287 290 289 283 258 278 291
211 230 261 286 296 303 303 307 307 306 301 297 298 303 297 299 294 292 286 289 287 295
225 246 268 282 290 297 301 305 305 301 300 302 298 299 293 299 299 298 296 297 298 306
238 258 269 280 287 293 297 302 305 303 301 300 302 300 302 299 298 294 295 300 306 304
249 260 270 280 286 291 293 299 305 304 301 297 294 295 290 301 295 294 300 306 303 307
258 268 275 284 287 288 289 299 303 300 300 303 305 247 292 292 304 304 303 304 309 304
269 277 283 287 289 288 290 298 300 300 312 305 297 266 275 283 313 307 308 307 306 306
279 287 291 290 288 291 291 293 295 289 286 287 262 245 261 287 313 309 308 307 305 305
292 295 293 292 293 293 292 290 288 288 282 278 240 241 260 290 308 306 305 304 302 306
288 288 289 294 296 294 286 283 287 287 286 276 260 236 261 278 298 300 302 304 306 307
295 295 294 297 296 286 282 286 283 273 276 266 247 250 259 275 285 293 302 303 307 309